McCook, NE

5:59 PM CST on December 09, 2019 (GMT -0600)
McCook Municipal

Weather History for KMCK - September, 2019

Change the Weather History Date:

Sunday, September 15, 2019

  Actual Average Record
Temperature  
Mean Temperature 75 °F 65 °F  
Max Temperature 97 °F 80 °F 100 °F (1955)
Min Temperature 53 °F 50 °F 30 °F (1961)
Cooling Degree Days 10    
Growing Degree Days 25 (Base 50)    
Moisture  
Dew Point 56 °F    
Average Humidity 60    
Maximum Humidity 97    
Minimum Humidity 25    
Precipitation  
Precipitation 0.00 in 0.05 in 0.68 in (1976)
Month to date precipitation 0.51 0.74  
Year to date precipitation 17.84 18.45  
Sea Level Pressure  
Sea Level Pressure 29.95 in    
Wind  
Wind Speed 6 mph ()    
Max Wind Speed 17 mph    
Max Gust Speed 24 mph    
Visibility 9.5 miles    
Events      
T = Trace of Precipitation, MM = Missing Value Source: Averaged Metar Reports

Daily Weather History Graph

Daily Weather History Graph

Search for Another Location

Airport or City:

Astronomy

Sep. 15, 2019 Rise Set
Actual Time 7:23 AM CDT 7:51 PM CDT
Civil Twilight 6:55 AM CDT 8:18 PM CDT
Nautical Twilight 6:23 AM CDT 8:50 PM CDT
Astronomical Twilight 5:50 AM CDT 9:23 PM CDT
Moon 8:59 PM CDT (9/15) 8:35 AM CDT (9/15)
Length of Visible Light 13h 22m
Length of Day
12h 28m
Full, 98% of the Moon is Illuminated
Sep 15
Full
Sep 21
Last Quarter
Sep 28
New
Oct 5
First Quarter
Oct 13
Full

Hourly Weather History & Observations

Time (CDT) Temp. Heat Index Dew Point Humidity Pressure Visibility Wind Dir Wind Speed Gust Speed Precip Events Conditions
12:53 AM 64.0 °F - 57.0 °F 78% 29.98 in 10.0 mi Calm Calm - N/A   Clear
1:53 AM 61.0 °F - 55.9 °F 83% 29.99 in 8.0 mi WNW 6.9 mph - N/A   Clear
2:53 AM 57.9 °F - 55.0 °F 90% 29.99 in 4.0 mi West 6.9 mph - N/A   Clear
3:53 AM 57.0 °F - 54.0 °F 89% 29.98 in 10.0 mi Calm Calm - N/A   Clear
4:53 AM 54.0 °F - 52.0 °F 93% 29.98 in 10.0 mi North 4.6 mph - N/A   Clear
5:53 AM 54.0 °F - 53.1 °F 97% 29.98 in 9.0 mi SW 6.9 mph - N/A   Clear
6:53 AM 53.1 °F - 51.1 °F 93% 29.99 in 10.0 mi WSW 5.8 mph - N/A   Clear
7:53 AM 54.0 °F - 52.0 °F 93% 29.99 in 7.0 mi SW 3.5 mph - N/A   Clear
8:53 AM 59.0 °F - 54.0 °F 83% 30.01 in 10.0 mi West 3.5 mph - N/A   Clear
9:53 AM 64.0 °F - 55.9 °F 75% 30.01 in 10.0 mi WSW 3.5 mph - N/A   Clear
10:53 AM 73.0 °F - 60.1 °F 64% 30.01 in 10.0 mi ESE 3.5 mph - N/A   Clear
11:53 AM 80.1 °F 81.5 °F 63.0 °F 56% 30.00 in 10.0 mi Calm Calm - N/A   Clear
12:53 PM 87.1 °F 87.0 °F 61.0 °F 41% 29.97 in 10.0 mi South 8.1 mph - N/A   Clear
1:53 PM 91.0 °F 90.5 °F 60.1 °F 35% 29.95 in 10.0 mi South 11.5 mph - N/A   Clear
2:53 PM 95.0 °F 94.4 °F 59.0 °F 30% 29.92 in 10.0 mi SSW 10.4 mph - N/A   Clear
3:53 PM 93.9 °F 91.4 °F 53.1 °F 25% 29.91 in 10.0 mi South 16.1 mph - N/A   Clear
4:53 PM 93.9 °F 91.7 °F 54.0 °F 26% 29.90 in 10.0 mi South 16.1 mph 24.2 mph N/A   Clear
5:53 PM 91.9 °F 89.5 °F 53.1 °F 27% 29.89 in 10.0 mi South 17.3 mph 21.9 mph N/A   Clear
6:53 PM 89.1 °F 87.1 °F 55.0 °F 31% 29.90 in 10.0 mi South 10.4 mph - N/A   Clear
7:53 PM 82.0 °F 81.3 °F 54.0 °F 38% 29.91 in 10.0 mi SSE 8.1 mph - N/A   Clear
8:53 PM 79.0 °F - 55.9 °F 45% 29.91 in 10.0 mi SSE 10.4 mph - N/A   Clear
9:53 PM 75.9 °F - 55.9 °F 50% 29.92 in 10.0 mi South 11.5 mph - N/A   Clear
10:53 PM 73.9 °F - 55.9 °F 53% 29.92 in 10.0 mi South 10.4 mph - N/A   Clear
11:53 PM 73.9 °F - 55.9 °F 53% 29.91 in 10.0 mi South 11.5 mph - N/A   Clear